Weather History for KGWR - March, 2012

Change the Weather History Date:

Tuesday, March 20, 2012

  Actual Average (KP67) Record (KP67)
Temperature  
Mean Temperature 48 °F -  
Max Temperature 57 °F 32 °F 43 °F (1997)
Min Temperature 39 °F 20 °F 23 °F (1997)
Degree Days  
Heating Degree Days 17    
Moisture  
Dew Point 31 °F    
Average Humidity 55    
Maximum Humidity 81    
Minimum Humidity 27    
Precipitation  
Precipitation 0.00 in - - ()
Sea Level Pressure  
Sea Level Pressure 29.88 in    
Wind  
Wind Speed 10 mph (NW)    
Max Wind Speed 16 mph    
Max Gust Speed 18 mph    
Visibility 10 miles    
Events      
Averages and records for this station are not official NWS values.
T = Trace of Precipitation, MM = Missing Value Source: NWS Daily Summary

Daily Weather History Graph

Daily Weather History Graph

Search for Another Location

Airport or City:

Trip Planner

Search our weather history database for the weather conditions in past years. The results will help you decide how hot, cold, wet, or windy it might be!

Date:

Astronomy

Mar. 20, 2012 Rise Set
Actual Time 7:32 AM CDT 7:43 PM CDT
Civil Twilight 7:02 AM CDT 8:13 PM CDT
Nautical Twilight 6:27 AM CDT 8:49 PM CDT
Astronomical Twilight 5:51 AM CDT 9:25 PM CDT
Moon 6:19 AM CDT (3/20) 6:10 PM CDT (3/20)
Length of Visible Light 13h 11m
Length of Day
12h 11m
Waning Crescent, 4% of the Moon is Illuminated
Mar 20
Waning Crescent
Mar 22
New
Mar 30
First Quarter
Apr 6
Full
Apr 13
Last Quarter

Hourly Weather History & Observations

Time (CDT) Temp. Windchill Dew Point Humidity Pressure Visibility Wind Dir Wind Speed Gust Speed Precip Events Conditions
3:55 AM 46.4 °F 39.8 °F 37.4 °F 71% 29.68 in 10.0 mi NW 16.1 mph - 0.00 in   Mostly Cloudy
4:35 AM 46.4 °F 40.7 °F 37.4 °F 71% 29.70 in 10.0 mi NW 12.7 mph 18.4 mph 0.00 in   Clear
4:55 AM 46.4 °F 41.1 °F 37.4 °F 71% 29.70 in 10.0 mi NW 11.5 mph - 0.00 in   Partly Cloudy
5:15 AM 44.6 °F 38.4 °F 37.4 °F 76% 29.71 in 10.0 mi NW 12.7 mph - 0.00 in   Clear
5:35 AM 44.6 °F 38.4 °F 35.6 °F 71% 29.71 in 10.0 mi NW 12.7 mph - 0.00 in   Clear
5:55 AM 44.6 °F 38.8 °F 35.6 °F 71% 29.73 in 10.0 mi NW 11.5 mph - 0.00 in   Clear
6:15 AM 44.6 °F 39.2 °F 35.6 °F 71% 29.74 in 10.0 mi NW 10.4 mph - 0.00 in   Clear
6:35 AM 42.8 °F 38.0 °F 35.6 °F 76% 29.75 in 10.0 mi NW 8.1 mph - 0.00 in   Clear
6:55 AM 42.8 °F 36.6 °F 33.8 °F 70% 29.77 in 10.0 mi NW 11.5 mph - 0.00 in   Scattered Clouds
7:15 AM 42.8 °F 36.6 °F 33.8 °F 70% 29.78 in 10.0 mi NW 11.5 mph - 0.00 in   Scattered Clouds
7:35 AM 41.0 °F 35.2 °F 33.8 °F 76% 29.80 in 10.0 mi NNW 9.2 mph - 0.00 in   Mostly Cloudy
7:55 AM 39.2 °F 34.2 °F 33.8 °F 81% 29.82 in 10.0 mi NW 6.9 mph - 0.00 in   Mostly Cloudy
8:15 AM 39.2 °F 35.9 °F 33.8 °F 81% 29.83 in 10.0 mi NNW 4.6 mph - 0.00 in   Mostly Cloudy
9:15 AM 44.6 °F 39.7 °F 33.8 °F 66% 29.87 in 10.0 mi WNW 9.2 mph - 0.00 in   Scattered Clouds
9:35 AM 42.8 °F 36.2 °F 33.8 °F 70% 29.88 in 10.0 mi WNW 12.7 mph - 0.00 in   Clear
9:55 AM 44.6 °F 38.1 °F 33.8 °F 66% 29.89 in 10.0 mi WNW 13.8 mph - 0.00 in   Partly Cloudy
10:15 AM 44.6 °F 38.4 °F 33.8 °F 66% 29.90 in 10.0 mi NW 12.7 mph - 0.00 in   Clear
10:55 AM 46.4 °F 40.4 °F 33.8 °F 62% 29.91 in 10.0 mi NNW 13.8 mph - 0.00 in   Clear
11:15 AM 48.2 °F - 32.0 °F 54% 29.92 in 10.0 mi WNW 11.5 mph - 0.00 in   Clear
11:35 AM 48.2 °F - 32.0 °F 54% 29.92 in 10.0 mi NW 8.1 mph - 0.00 in   Clear
11:55 AM 48.2 °F - 32.0 °F 54% 29.93 in 10.0 mi NW 9.2 mph - 0.00 in   Clear
12:15 PM 50.0 °F - 32.0 °F 50% 29.93 in 10.0 mi NW 8.1 mph - 0.00 in   Clear
12:35 PM 50.0 °F - 30.2 °F 47% 29.93 in 10.0 mi NNW 9.2 mph - 0.00 in   Clear
12:55 PM 51.8 °F - 30.2 °F 44% 29.93 in 10.0 mi North 11.5 mph - 0.00 in   Clear
1:35 PM 51.8 °F - 30.2 °F 44% 29.92 in 10.0 mi NNW 5.8 mph - 0.00 in   Clear
1:55 PM 53.6 °F - 28.4 °F 38% 29.92 in 10.0 mi WNW 8.1 mph - 0.00 in   Clear
2:15 PM 53.6 °F - 28.4 °F 38% 29.92 in 6.0 mi NNW 4.6 mph - 0.00 in   Clear
2:35 PM 55.4 °F - 28.4 °F 36% 29.92 in 10.0 mi West 9.2 mph - 0.00 in   Clear
2:55 PM 55.4 °F - 26.6 °F 33% 29.91 in 10.0 mi WNW 3.5 mph - 0.00 in   Clear
3:15 PM 55.4 °F - 23.0 °F 29% 29.91 in 10.0 mi NW 5.8 mph - 0.00 in   Clear
3:35 PM 57.2 °F - 23.0 °F 27% 29.91 in 10.0 mi WNW 5.8 mph - 0.00 in   Clear
3:55 PM 57.2 °F - 28.4 °F 33% 29.91 in 10.0 mi WSW 4.6 mph - 0.00 in   Clear
4:15 PM 57.2 °F - 26.6 °F 31% 29.91 in 10.0 mi NNW 8.1 mph - 0.00 in   Clear
4:35 PM 57.2 °F - 24.8 °F 29% 29.90 in 10.0 mi NW 3.5 mph - 0.00 in   Clear
4:55 PM 57.2 °F - 26.6 °F 31% 29.91 in 3.0 mi Calm Calm - 0.00 in   Clear
5:15 PM 57.2 °F - 26.6 °F 31% 29.90 in 5.0 mi WNW 4.6 mph - 0.00 in   Clear
5:35 PM 57.2 °F - 28.4 °F 33% 29.91 in 10.0 mi North 5.8 mph - 0.00 in   Clear
5:55 PM 57.2 °F - 26.6 °F 31% 29.92 in 10.0 mi NW 4.6 mph - 0.00 in   Clear
6:15 PM 57.2 °F - 26.6 °F 31% 29.92 in 10.0 mi NNE 3.5 mph - 0.00 in   Clear
6:35 PM 57.2 °F - 23.0 °F 27% 29.92 in 10.0 mi Calm Calm - 0.00 in   Clear
6:55 PM 55.4 °F - 23.0 °F 29% 29.92 in 10.0 mi Calm Calm - 0.00 in   Clear
7:15 PM 53.6 °F - 30.2 °F 41% 29.92 in 10.0 mi East 4.6 mph - 0.00 in   Clear
7:35 PM 50.0 °F - 32.0 °F 50% 29.92 in 10.0 mi East 8.1 mph - 0.00 in   Clear
7:55 PM 46.4 °F 42.4 °F 32.0 °F 57% 29.93 in 10.0 mi ESE 8.1 mph - 0.00 in   Clear
8:15 PM 46.4 °F 42.9 °F 32.0 °F 57% 29.93 in 10.0 mi SE 6.9 mph - 0.00 in   Clear
8:35 PM 44.6 °F 40.7 °F 33.8 °F 66% 29.93 in 10.0 mi SE 6.9 mph - 0.00 in   Clear
8:55 PM 44.6 °F 40.2 °F 32.0 °F 61% 29.93 in 10.0 mi SE 8.1 mph - 0.00 in   Clear
9:15 PM 44.6 °F 40.2 °F 32.0 °F 61% 29.93 in 10.0 mi SE 8.1 mph - 0.00 in   Clear
9:35 PM 44.6 °F 40.7 °F 32.0 °F 61% 29.93 in 10.0 mi SE 6.9 mph - 0.00 in   Clear
9:55 PM 42.8 °F 37.5 °F 32.0 °F 66% 29.94 in 10.0 mi SSE 9.2 mph - 0.00 in   Clear
10:15 PM 42.8 °F 38.0 °F 33.8 °F 70% 29.95 in 10.0 mi SSE 8.1 mph - 0.00 in   Clear
10:35 PM 42.8 °F 37.0 °F 35.6 °F 76% 29.94 in 10.0 mi SSE 10.4 mph - 0.00 in   Clear
10:55 PM 44.6 °F 39.2 °F 33.8 °F 66% 29.94 in 10.0 mi SSE 10.4 mph - 0.00 in   Clear
11:15 PM 44.6 °F 39.2 °F 32.0 °F 61% 29.93 in 10.0 mi SSE 10.4 mph - 0.00 in   Clear
11:35 PM 42.8 °F 38.0 °F 32.0 °F 66% 29.93 in 10.0 mi South 8.1 mph - 0.00 in   Clear